Satellite: HAWKSAT1
Catalog number: 35003
Epoch time:      09190.89039901
Element set:      46
Inclination:      040.4695 deg
RA of node:       104.4631 deg
Eccentricity:    0.0029521
Arg of perigee:   334.1920 deg
Mean anomaly:     025.7422 deg
Mean motion:   15.39915105 rev/day
Decay rate:       8.66e-06 rev/day^2
Epoch rev:             785
Checksum:              278

Satellite: CP6
Catalog number: 35004
Epoch time:      09189.91212614
Element set:      39
Inclination:      040.4605 deg
RA of node:       110.1985 deg
Eccentricity:    0.0029359
Arg of perigee:   328.6995 deg
Mean anomaly:     031.2082 deg
Mean motion:   15.40164192 rev/day
Decay rate:      2.455e-05 rev/day^2
Epoch rev:             769
Checksum:              292

Satellite: AEROCUB3
Catalog number: 35005
Epoch time:      09189.91815909
Element set:    0050
Inclination:      040.4747 deg
RA of node:       110.3100 deg
Eccentricity:    0.0029207
Arg of perigee:   327.3322 deg
Mean anomaly:     032.5681 deg
Mean motion:   15.39990238 rev/day
Decay rate:      2.567e-05 rev/day^2
Epoch rev:           00769
Checksum:              288

/EX






More information about the Keps mailing list